ROMMA est une association bénévole à but non lucratif. Votre soutien est indispensable : ADHERER à ROMMA ou FAIRE un DON

Granges-lès-Beaumont - (26, Drôme)

Drôme des Collines (155 m)   Longitude: 04°58'E   Latitude: 45°03'N Station partenaire n°123
 

Détail journalier du     <<     >>

Température Precipitation Humidité Pression Vent Dir Rafale Dir. rafale Ensol.
Heure (°C) (mm) (%) (hPa) (km/h) (km/h) (min)
01:00 5.7086101602ENE0
02:00 3.4089101600---0
03:00 2.1091101600---0
04:00 1.6093101600---0
05:00 1.309410153NNE8ENE0
06:00 0.509410152NNE5NNE0
07:00 0.209410141NNE3NNE0
08:00 -0.309410141NNE5NNE0
09:00 1.1096101400---0
10:00 3.409110141NNE6NNE0
11:00 5.208510143ENE8ENE50
12:00 6.808210131SE6ENE50
13:00 8.407710122ESE8ESE50
14:00 9.407410121S5S40
15:00 8.807610111S8SSE0
16:00 8.7075101105S10
17:00 8.1080101103S30
18:00 6.508910112NE6S0
19:00 6.708910111NE6NE0
20:00 6.5090101103NE0
21:00 6.4091101100---0
22:00 6.609010114E11ESE0
23:00 6.309010105E13E0
minuit 5.709110104ENE13ENE0

Graphique du 20-11-2019

 

Serveur OMMA